Simultaneous Nadir Overpasses (SNOs) Predictions

Prediction of SNOs between GOES-14 and AQUA Satellite Orbit:

Table of predicted SNOs for the next 14.0 days since TLE Epoch: 6/1/2024
Index Date Time (GOES-14) GOES-14 Lat,Lon AQUA Lat,Lon Distance(km) Time Diff (sec)
1 06/02/2024 09:09:37 0.02,-108.60 -0.77,-104.82 429.76 80
2 06/02/2024 21:27:15 0.01,-108.58 -0.26,-109.74 131.87 80
3 06/04/2024 21:13:25 0.01,-108.58 0.61,-105.70 326.60 80
4 06/05/2024 09:30:53 -0.03,-108.60 0.38,-110.59 225.42 80
5 06/07/2024 09:17:03 -0.03,-108.59 -0.47,-106.55 232.88 80
6 06/07/2024 21:34:39 0.05,-108.56 -0.59,-111.45 329.75 80
7 06/09/2024 21:20:48 0.05,-108.55 0.31,-107.42 129.42 80
8 06/10/2024 09:38:16 -0.07,-108.59 0.72,-112.29 421.36 80
9 06/12/2024 09:24:23 -0.06,-108.58 -0.11,-108.24 38.48 80
10 06/14/2024 09:07:50 -0.05,-108.58 -0.97,-104.19 498.62 80
11 06/14/2024 21:25:27 0.08,-108.54 -0.05,-109.11 64.15 80
